Thorco Attraction — V2BS1 — position and weather

sailwx.info

Track history (hours):
 
Tides and Currents Weather Stations Pressure Air Temp Water Temp Dewpoint Dewpoint Depression Visibility Wind Speed Wind Dir Waves Ship Positions

Thorco Attraction

Last reported at 2014-Jul-23 04:34 UTC. Time now 2014-Jul-24 17:04 UTC.
Position N 48°09' W 006°24'.

Length 132 m; draft 6.6 m.

Type: Cargo ship. MMSI: 304908000.

Date/timePositionNaut miles runAvg speedWind from/ knotsBaromVisibWave heightAir tempDewpointWater temp
2014-Jul-23 04:34N 48°09' W 006°24'1312.6
2014-Jul-23 03:33N 48°20' W 006°15'5611.1
2014-Jul-22 22:33N 49°04' W 005°23'24112.1
2014-Jul-22 02:33N 50°34' E 000°24'1212.3
2014-Jul-22 01:33N 50°40' E 000°41'1312.8
2014-Jul-22 00:33N 50°48' E 000°57'1312.6
2014-Jul-21 23:33N 50°56' E 001°12'1211.9
2014-Jul-21 22:33N 51°03' E 001°26'1111.0
2014-Jul-21 21:33N 51°10' E 001°40'1010.4
2014-Jul-21 20:33N 51°18' E 001°51'310.9
2014-Jul-21 20:18N 51°21' E 001°53'811.2
2014-Jul-21 19:33N 51°28' E 001°59'1211.9
2014-Jul-21 18:33N 51°37' E 002°12'1412.2
2014-Jul-21 17:23N 51°48' E 002°28'4012.8
2014-Jul-21 14:13N 52°19' E 003°09'6811.2
2014-Jul-21 08:08N 53°10' E 004°24'2212.0
2014-Jul-21 06:16N 53°29' E 004°43'812.0
2014-Jul-21 05:33N 53°33' E 004°56'1211.8
2014-Jul-21 04:33N 53°37' E 005°14'1111.0
2014-Jul-21 03:33N 53°40' E 005°32'1010.4
2014-Jul-21 02:33N 53°44' E 005°49'1110.5
2014-Jul-21 01:30N 53°47' E 006°06'1310.8
2014-Jul-21 00:17N 53°51' E 006°28'3611.9
2014-Jul-20 21:13N 53°60' E 007°28'812.6
2014-Jul-20 20:33N 54°02' E 007°42'1212.3
2014-Jul-20 19:33N 54°01' E 008°03'1211.8
2014-Jul-20 18:33N 53°60' E 008°23'1110.9
2014-Jul-20 17:34N 53°56' E 008°40'9 8.7
2014-Jul-20 16:33N 53°50' E 008°52'10 9.4
2014-Jul-20 15:31N 53°53' E 009°08'1 0.8
2014-Jul-20 14:32N 53°54' E 009°09'1 1.3
2014-Jul-20 13:33N 53°54' E 009°10'5 4.8
2014-Jul-20 12:32N 53°58' E 009°16'9 8.1
2014-Jul-20 11:29N 54°06' E 009°20'5 4.7
2014-Jul-20 10:31N 54°10' E 009°25'29 5.2
2014-Jul-20 05:03N 54°22' E 010°09'1 2.3
2014-Jul-20 04:32N 54°23' E 010°11'9 8.9
2014-Jul-20 03:33N 54°30' E 010°18'9 9.5
2014-Jul-20 02:33N 54°34' E 010°33'1010.2
2014-Jul-20 01:33N 54°36' E 010°50'1110.9
2014-Jul-20 00:33N 54°37' E 011°09'1110.8
2014-Jul-19 23:33N 54°32' E 011°26'1110.5
2014-Jul-19 22:33N 54°28' E 011°42'1110.7
2014-Jul-19 21:33N 54°26' E 012°01'9 9.1
2014-Jul-19 20:33N 54°32' E 012°13'1010.2
2014-Jul-19 19:33N 54°40' E 012°24'1110.6
2014-Jul-19 18:33N 54°46' E 012°39'1010.1
2014-Jul-19 17:33N 54°48' E 012°56'1110.7
2014-Jul-19 16:33N 54°47' E 013°15'1111.0
2014-Jul-19 15:33N 54°47' E 013°34'1110.6
2014-Jul-19 14:33N 54°44' E 013°51'1110.7
2014-Jul-19 13:33N 54°41' E 014°09'1110.8
2014-Jul-19 12:33N 54°38' E 014°27'1111.0
2014-Jul-19 11:33N 54°40' E 014°46'1410.8
2014-Jul-19 10:17N 54°42' E 015°09'810.8
2014-Jul-19 09:33N 54°43' E 015°23'1110.7
2014-Jul-19 08:33N 54°44' E 015°41'1111.0
2014-Jul-19 07:33N 54°46' E 016°00'8 8.0
2014-Jul-19 06:33N 54°47' E 016°14'1212.0
2014-Jul-19 05:33N 54°49' E 016°34'1212.3
2014-Jul-19 04:33N 54°51' E 016°55'1212.4
2014-Jul-19 03:33N 54°54' E 017°16'1212.1
2014-Jul-19 02:33N 54°55' E 017°37'1212.1
2014-Jul-19 01:33N 54°56' E 017°58'1211.9
2014-Jul-19 00:33N 54°56' E 018°19'1211.7
2014-Jul-18 23:33N 54°55' E 018°39'1212.4
2014-Jul-18 22:33N 54°47' E 018°56'1110.9
2014-Jul-18 21:33N 54°36' E 018°54'1010.5
2014-Jul-18 20:33N 54°32' E 018°38'4 4.3
2014-Jul-18 19:33N 54°33' E 018°30'0 0.0
2014-Jul-18 18:33N 54°33' E 018°30'0 0.0
2014-Jul-18 17:33N 54°33' E 018°30'0 0.0
2014-Jul-18 16:33N 54°33' E 018°30'0 0.0
2014-Jul-18 15:33N 54°33' E 018°30'0 0.0
2014-Jul-18 14:33N 54°33' E 018°30'0 0.0
2014-Jul-18 13:33N 54°33' E 018°30'0 0.0
2014-Jul-18 12:33N 54°33' E 018°30'0 0.0
2014-Jul-18 11:33N 54°33' E 018°30'0 0.0
2014-Jul-18 10:33N 54°33' E 018°30'0 0.0
2014-Jul-18 09:33N 54°33' E 018°30'0 0.0
2014-Jul-18 08:33N 54°33' E 018°30'0 0.0
2014-Jul-18 07:33N 54°33' E 018°30'0 0.0
2014-Jul-18 06:33N 54°33' E 018°30'0 0.0
2014-Jul-18 05:33N 54°33' E 018°30'0 0.0
2014-Jul-18 04:33N 54°33' E 018°30'0 0.0
2014-Jul-18 03:33N 54°33' E 018°30'0 0.0
2014-Jul-18 02:33N 54°33' E 018°30'0 0.0
2014-Jul-18 01:33N 54°33' E 018°30'0 0.0
2014-Jul-18 00:33N 54°33' E 018°30'0 0.0
2014-Jul-17 23:30N 54°33' E 018°30'0 0.0
2014-Jul-17 22:33N 54°33' E 018°30'0 0.0
2014-Jul-17 21:33N 54°33' E 018°30'0 0.0
2014-Jul-17 20:33N 54°33' E 018°30'0 0.0
2014-Jul-17 19:33N 54°33' E 018°30'0 0.0
2014-Jul-17 18:33N 54°33' E 018°30'0 0.0
2014-Jul-17 17:33N 54°33' E 018°30'0 0.0
2014-Jul-17 16:33N 54°33' E 018°30'0 0.0
2014-Jul-17 15:33N 54°33' E 018°30'0 0.0
2014-Jul-17 14:33N 54°33' E 018°30'0 0.0
2014-Jul-17 13:33N 54°33' E 018°30'0 0.0
2014-Jul-17 12:33N 54°33' E 018°30'0 0.0
2014-Jul-17 11:33N 54°33' E 018°30'0 0.0
2014-Jul-17 10:33N 54°33' E 018°30'0 0.0
2014-Jul-17 09:33N 54°33' E 018°30'0 0.0
2014-Jul-17 08:33N 54°33' E 018°30'0 0.0
2014-Jul-17 07:30N 54°33' E 018°30'0 0.0
2014-Jul-17 06:33N 54°33' E 018°30'0 0.0
2014-Jul-17 05:33N 54°33' E 018°30'0 0.0
2014-Jul-17 04:33N 54°33' E 018°30'0 0.0
2014-Jul-17 03:33N 54°33' E 018°30'0 0.0
2014-Jul-17 02:33N 54°33' E 018°30'0 0.0
2014-Jul-17 01:33N 54°33' E 018°30'0 0.0
2014-Jul-17 00:33N 54°33' E 018°30'0 0.0
2014-Jul-16 23:33N 54°33' E 018°30'0 0.0
2014-Jul-16 22:33N 54°33' E 018°30'0 0.0
2014-Jul-16 21:33N 54°33' E 018°30'0 0.0
2014-Jul-16 20:33N 54°33' E 018°30'0 0.0
2014-Jul-16 19:33N 54°33' E 018°30'0 0.0
2014-Jul-16 18:33N 54°33' E 018°30'0 0.0
2014-Jul-16 17:33N 54°33' E 018°30'0 0.0
2014-Jul-16 16:33N 54°33' E 018°30'0 0.0
2014-Jul-16 15:33N 54°33' E 018°30'0 0.0
2014-Jul-16 14:33N 54°33' E 018°30'0 0.0
2014-Jul-16 13:33N 54°33' E 018°30'0 0.0
2014-Jul-16 12:33N 54°33' E 018°30'0 0.0
2014-Jul-16 11:33N 54°33' E 018°30'0 0.0
2014-Jul-16 10:33N 54°33' E 018°30'0 0.0
2014-Jul-16 09:33N 54°33' E 018°30'0 0.0
2014-Jul-16 08:33N 54°33' E 018°30'0 0.0
2014-Jul-16 07:33N 54°33' E 018°30'0 0.0
2014-Jul-16 06:33N 54°33' E 018°30'0 0.0
2014-Jul-16 05:33N 54°33' E 018°30'0 0.0
2014-Jul-16 04:33N 54°33' E 018°30'0 0.0
2014-Jul-16 03:33N 54°33' E 018°30'0 0.0
2014-Jul-16 02:33N 54°33' E 018°30'0 0.1
2014-Jul-16 01:33N 54°33' E 018°31'7 6.9
2014-Jul-16 00:33N 54°32' E 018°42'10 9.9
2014-Jul-15 23:33N 54°39' E 018°55'10 9.6
2014-Jul-15 22:33N 54°48' E 018°52'1211.9
2014-Jul-15 21:33N 54°56' E 018°36'1211.6
2014-Jul-15 20:34N 54°56' E 018°16'1212.4
2014-Jul-15 19:33N 54°55' E 017°54'2411.9
2014-Jul-15 17:30N 54°51' E 017°12'10611.8
2014-Jul-15 08:33N 54°38' E 014°10'1212.1
2014-Jul-15 07:33N 54°41' E 013°50'1111.1
2014-Jul-15 06:33N 54°44' E 013°31'1111.2
2014-Jul-15 05:33N 54°45' E 013°11'1111.2
2014-Jul-15 04:33N 54°45' E 012°52'1010.4
2014-Jul-15 03:33N 54°42' E 012°35'1111.0
2014-Jul-15 02:33N 54°36' E 012°19'1111.0
2014-Jul-15 01:33N 54°25' E 012°12'1110.9
2014-Jul-15 00:33N 54°24' E 011°53'1110.9
2014-Jul-14 23:33N 54°27' E 011°35'1211.6
2014-Jul-14 22:33N 54°32' E 011°17'1211.5
2014-Jul-14 21:32N 54°35' E 010°57'63 7.0
2014-Jul-14 12:32N 54°08' E 009°20'9 8.7
2014-Jul-14 11:32N 53°59' E 009°17'7 7.6
2014-Jul-14 10:34N 53°54' E 009°09'1 1.4
2014-Jul-14 09:33N 53°53' E 009°07'1 0.5
2014-Jul-14 08:33N 53°53' E 009°06'6 5.9
2014-Jul-14 07:33N 53°51' E 008°56'8 8.1
2014-Jul-14 06:34N 53°52' E 008°43'8 7.9
2014-Jul-14 05:33N 53°58' E 008°33'1010.0
2014-Jul-14 04:33N 53°60' E 008°17'9 9.3
2014-Jul-14 03:34N 53°58' E 008°01'1110.3
2014-Jul-14 02:32N 53°56' E 007°43'29 9.7
2014-Jul-13 23:32N 53°49' E 006°56'1010.1
2014-Jul-13 22:30N 53°47' E 006°38'1010.6
2014-Jul-13 21:33N 53°45' E 006°22'1111.2
2014-Jul-13 20:33N 53°41' E 006°04'1211.6
2014-Jul-13 19:33N 53°37' E 005°45'1211.7
2014-Jul-13 18:33N 53°34' E 005°27'1211.8
2014-Jul-13 17:33N 53°30' E 005°08'1211.9
2014-Jul-13 16:33N 53°26' E 004°49'1211.7
2014-Jul-13 15:33N 53°17' E 004°36'1312.3
2014-Jul-13 14:32N 53°06' E 004°28'1612.2
2014-Jul-13 13:11N 52°51' E 004°15'  
Track history (hours):
 
Tides and Currents Weather Stations Pressure Air Temp Water Temp Dewpoint Dewpoint Depression Visibility Wind Speed Wind Dir Waves Ship Positions

Thorco Attraction

Last reported at 2014-Jul-23 04:34 UTC. Time now 2014-Jul-24 17:04 UTC.
Position N 48°09' W 006°24'.

Length 132 m; draft 6.6 m.

Type: Cargo ship. MMSI: 304908000.

Date/timePositionNaut miles runAvg speedWind from/ knotsBaromVisibWave heightAir tempDewpointWater temp
2014-Jul-23 04:34N 48°09' W 006°24'1312.6
2014-Jul-23 03:33N 48°20' W 006°15'5611.1
2014-Jul-22 22:33N 49°04' W 005°23'24112.1
2014-Jul-22 02:33N 50°34' E 000°24'1212.3
2014-Jul-22 01:33N 50°40' E 000°41'1312.8
2014-Jul-22 00:33N 50°48' E 000°57'1312.6
2014-Jul-21 23:33N 50°56' E 001°12'1211.9
2014-Jul-21 22:33N 51°03' E 001°26'1111.0
2014-Jul-21 21:33N 51°10' E 001°40'1010.4
2014-Jul-21 20:33N 51°18' E 001°51'310.9
2014-Jul-21 20:18N 51°21' E 001°53'811.2
2014-Jul-21 19:33N 51°28' E 001°59'1211.9
2014-Jul-21 18:33N 51°37' E 002°12'1412.2
2014-Jul-21 17:23N 51°48' E 002°28'4012.8
2014-Jul-21 14:13N 52°19' E 003°09'6811.2
2014-Jul-21 08:08N 53°10' E 004°24'2212.0
2014-Jul-21 06:16N 53°29' E 004°43'812.0
2014-Jul-21 05:33N 53°33' E 004°56'1211.8
2014-Jul-21 04:33N 53°37' E 005°14'1111.0
2014-Jul-21 03:33N 53°40' E 005°32'1010.4
2014-Jul-21 02:33N 53°44' E 005°49'1110.5
2014-Jul-21 01:30N 53°47' E 006°06'1310.8
2014-Jul-21 00:17N 53°51' E 006°28'3611.9
2014-Jul-20 21:13N 53°60' E 007°28'812.6
2014-Jul-20 20:33N 54°02' E 007°42'1212.3
2014-Jul-20 19:33N 54°01' E 008°03'1211.8
2014-Jul-20 18:33N 53°60' E 008°23'1110.9
2014-Jul-20 17:34N 53°56' E 008°40'9 8.7
2014-Jul-20 16:33N 53°50' E 008°52'10 9.4
2014-Jul-20 15:31N 53°53' E 009°08'1 0.8
2014-Jul-20 14:32N 53°54' E 009°09'1 1.3
2014-Jul-20 13:33N 53°54' E 009°10'5 4.8
2014-Jul-20 12:32N 53°58' E 009°16'9 8.1
2014-Jul-20 11:29N 54°06' E 009°20'5 4.7
2014-Jul-20 10:31N 54°10' E 009°25'29 5.2
2014-Jul-20 05:03N 54°22' E 010°09'1 2.3
2014-Jul-20 04:32N 54°23' E 010°11'9 8.9
2014-Jul-20 03:33N 54°30' E 010°18'9 9.5
2014-Jul-20 02:33N 54°34' E 010°33'1010.2
2014-Jul-20 01:33N 54°36' E 010°50'1110.9
2014-Jul-20 00:33N 54°37' E 011°09'1110.8
2014-Jul-19 23:33N 54°32' E 011°26'1110.5
2014-Jul-19 22:33N 54°28' E 011°42'1110.7
2014-Jul-19 21:33N 54°26' E 012°01'9 9.1
2014-Jul-19 20:33N 54°32' E 012°13'1010.2
2014-Jul-19 19:33N 54°40' E 012°24'1110.6
2014-Jul-19 18:33N 54°46' E 012°39'1010.1
2014-Jul-19 17:33N 54°48' E 012°56'1110.7
2014-Jul-19 16:33N 54°47' E 013°15'1111.0
2014-Jul-19 15:33N 54°47' E 013°34'1110.6
2014-Jul-19 14:33N 54°44' E 013°51'1110.7
2014-Jul-19 13:33N 54°41' E 014°09'1110.8
2014-Jul-19 12:33N 54°38' E 014°27'1111.0
2014-Jul-19 11:33N 54°40' E 014°46'1410.8
2014-Jul-19 10:17N 54°42' E 015°09'810.8
2014-Jul-19 09:33N 54°43' E 015°23'1110.7
2014-Jul-19 08:33N 54°44' E 015°41'1111.0
2014-Jul-19 07:33N 54°46' E 016°00'8 8.0
2014-Jul-19 06:33N 54°47' E 016°14'1212.0
2014-Jul-19 05:33N 54°49' E 016°34'1212.3
2014-Jul-19 04:33N 54°51' E 016°55'1212.4
2014-Jul-19 03:33N 54°54' E 017°16'1212.1
2014-Jul-19 02:33N 54°55' E 017°37'1212.1
2014-Jul-19 01:33N 54°56' E 017°58'1211.9
2014-Jul-19 00:33N 54°56' E 018°19'1211.7
2014-Jul-18 23:33N 54°55' E 018°39'1212.4
2014-Jul-18 22:33N 54°47' E 018°56'1110.9
2014-Jul-18 21:33N 54°36' E 018°54'1010.5
2014-Jul-18 20:33N 54°32' E 018°38'4 4.3
2014-Jul-18 19:33N 54°33' E 018°30'0 0.0
2014-Jul-18 18:33N 54°33' E 018°30'0 0.0
2014-Jul-18 17:33N 54°33' E 018°30'0 0.0
2014-Jul-18 16:33N 54°33' E 018°30'0 0.0
2014-Jul-18 15:33N 54°33' E 018°30'0 0.0
2014-Jul-18 14:33N 54°33' E 018°30'0 0.0
2014-Jul-18 13:33N 54°33' E 018°30'0 0.0
2014-Jul-18 12:33N 54°33' E 018°30'0 0.0
2014-Jul-18 11:33N 54°33' E 018°30'0 0.0
2014-Jul-18 10:33N 54°33' E 018°30'0 0.0
2014-Jul-18 09:33N 54°33' E 018°30'0 0.0
2014-Jul-18 08:33N 54°33' E 018°30'0 0.0
2014-Jul-18 07:33N 54°33' E 018°30'0 0.0
2014-Jul-18 06:33N 54°33' E 018°30'0 0.0
2014-Jul-18 05:33N 54°33' E 018°30'0 0.0
2014-Jul-18 04:33N 54°33' E 018°30'0 0.0
2014-Jul-18 03:33N 54°33' E 018°30'0 0.0
2014-Jul-18 02:33N 54°33' E 018°30'0 0.0
2014-Jul-18 01:33N 54°33' E 018°30'0 0.0
2014-Jul-18 00:33N 54°33' E 018°30'0 0.0
2014-Jul-17 23:30N 54°33' E 018°30'0 0.0
2014-Jul-17 22:33N 54°33' E 018°30'0 0.0
2014-Jul-17 21:33N 54°33' E 018°30'0 0.0
2014-Jul-17 20:33N 54°33' E 018°30'0 0.0
2014-Jul-17 19:33N 54°33' E 018°30'0 0.0
2014-Jul-17 18:33N 54°33' E 018°30'0 0.0
2014-Jul-17 17:33N 54°33' E 018°30'0 0.0
2014-Jul-17 16:33N 54°33' E 018°30'0 0.0
2014-Jul-17 15:33N 54°33' E 018°30'0 0.0
2014-Jul-17 14:33N 54°33' E 018°30'0 0.0
2014-Jul-17 13:33N 54°33' E 018°30'0 0.0
2014-Jul-17 12:33N 54°33' E 018°30'0 0.0
2014-Jul-17 11:33N 54°33' E 018°30'0 0.0
2014-Jul-17 10:33N 54°33' E 018°30'0 0.0
2014-Jul-17 09:33N 54°33' E 018°30'0 0.0
2014-Jul-17 08:33N 54°33' E 018°30'0 0.0
2014-Jul-17 07:30N 54°33' E 018°30'0 0.0
2014-Jul-17 06:33N 54°33' E 018°30'0 0.0
2014-Jul-17 05:33N 54°33' E 018°30'0 0.0
2014-Jul-17 04:33N 54°33' E 018°30'0 0.0
2014-Jul-17 03:33N 54°33' E 018°30'0 0.0
2014-Jul-17 02:33N 54°33' E 018°30'0 0.0
2014-Jul-17 01:33N 54°33' E 018°30'0 0.0
2014-Jul-17 00:33N 54°33' E 018°30'0 0.0
2014-Jul-16 23:33N 54°33' E 018°30'0 0.0
2014-Jul-16 22:33N 54°33' E 018°30'0 0.0
2014-Jul-16 21:33N 54°33' E 018°30'0 0.0
2014-Jul-16 20:33N 54°33' E 018°30'0 0.0
2014-Jul-16 19:33N 54°33' E 018°30'0 0.0
2014-Jul-16 18:33N 54°33' E 018°30'0 0.0
2014-Jul-16 17:33N 54°33' E 018°30'0 0.0
2014-Jul-16 16:33N 54°33' E 018°30'0 0.0
2014-Jul-16 15:33N 54°33' E 018°30'0 0.0
2014-Jul-16 14:33N 54°33' E 018°30'0 0.0
2014-Jul-16 13:33N 54°33' E 018°30'0 0.0
2014-Jul-16 12:33N 54°33' E 018°30'0 0.0
2014-Jul-16 11:33N 54°33' E 018°30'0 0.0
2014-Jul-16 10:33N 54°33' E 018°30'0 0.0
2014-Jul-16 09:33N 54°33' E 018°30'0 0.0
2014-Jul-16 08:33N 54°33' E 018°30'0 0.0
2014-Jul-16 07:33N 54°33' E 018°30'0 0.0
2014-Jul-16 06:33N 54°33' E 018°30'0 0.0
2014-Jul-16 05:33N 54°33' E 018°30'0 0.0
2014-Jul-16 04:33N 54°33' E 018°30'0 0.0
2014-Jul-16 03:33N 54°33' E 018°30'0 0.0
2014-Jul-16 02:33N 54°33' E 018°30'0 0.1
2014-Jul-16 01:33N 54°33' E 018°31'7 6.9
2014-Jul-16 00:33N 54°32' E 018°42'10 9.9
2014-Jul-15 23:33N 54°39' E 018°55'10 9.6
2014-Jul-15 22:33N 54°48' E 018°52'1211.9
2014-Jul-15 21:33N 54°56' E 018°36'1211.6
2014-Jul-15 20:34N 54°56' E 018°16'1212.4
2014-Jul-15 19:33N 54°55' E 017°54'2411.9
2014-Jul-15 17:30N 54°51' E 017°12'10611.8
2014-Jul-15 08:33N 54°38' E 014°10'1212.1
2014-Jul-15 07:33N 54°41' E 013°50'1111.1
2014-Jul-15 06:33N 54°44' E 013°31'1111.2
2014-Jul-15 05:33N 54°45' E 013°11'1111.2
2014-Jul-15 04:33N 54°45' E 012°52'1010.4
2014-Jul-15 03:33N 54°42' E 012°35'1111.0
2014-Jul-15 02:33N 54°36' E 012°19'1111.0
2014-Jul-15 01:33N 54°25' E 012°12'1110.9
2014-Jul-15 00:33N 54°24' E 011°53'1110.9
2014-Jul-14 23:33N 54°27' E 011°35'1211.6
2014-Jul-14 22:33N 54°32' E 011°17'1211.5
2014-Jul-14 21:32N 54°35' E 010°57'63 7.0
2014-Jul-14 12:32N 54°08' E 009°20'9 8.7
2014-Jul-14 11:32N 53°59' E 009°17'7 7.6
2014-Jul-14 10:34N 53°54' E 009°09'1 1.4
2014-Jul-14 09:33N 53°53' E 009°07'1 0.5
2014-Jul-14 08:33N 53°53' E 009°06'6 5.9
2014-Jul-14 07:33N 53°51' E 008°56'8 8.1
2014-Jul-14 06:34N 53°52' E 008°43'8 7.9
2014-Jul-14 05:33N 53°58' E 008°33'1010.0
2014-Jul-14 04:33N 53°60' E 008°17'9 9.3
2014-Jul-14 03:34N 53°58' E 008°01'1110.3
2014-Jul-14 02:32N 53°56' E 007°43'29 9.7
2014-Jul-13 23:32N 53°49' E 006°56'1010.1
2014-Jul-13 22:30N 53°47' E 006°38'1010.6
2014-Jul-13 21:33N 53°45' E 006°22'1111.2
2014-Jul-13 20:33N 53°41' E 006°04'1211.6
2014-Jul-13 19:33N 53°37' E 005°45'1211.7
2014-Jul-13 18:33N 53°34' E 005°27'1211.8
2014-Jul-13 17:33N 53°30' E 005°08'1211.9
2014-Jul-13 16:33N 53°26' E 004°49'1211.7
2014-Jul-13 15:33N 53°17' E 004°36'1312.3
2014-Jul-13 14:32N 53°06' E 004°28'1612.2
2014-Jul-13 13:11N 52°51' E 004°15'  

Dump ship's entire track history